• In Hungary
  • List of Countries
  • For 7 days
  • Water Temperature
  • Satellite Maps
  • Weather Map
  • News
  • Weather Widgets
  • user-avatar
    Login

    Hourly Weather Marcjanka

    Today, 25 September, Tuesday

    Time Temperature Precipitation Wind Pressure Humidity
    00:00 +4°C° 0 mm 6 mps 753 mmHg 73%
    01:00 +4°C° 0 mm 6 mps 754 mmHg 74%
    02:00 +4°C° 0 mm 6 mps 754 mmHg 76%
    03:00 +4°C° 0 mm 6 mps 754 mmHg 77%
    04:00 +3°C° 0 mm 5 mps 755 mmHg 79%
    05:00 +4°C° 0 mm 6 mps 755 mmHg 78%
    06:00 +4°C° 0 mm 6 mps 756 mmHg 78%
    07:00 +4°C° 0 mm 6 mps 756 mmHg 77%
    08:00 +7°C° 0 mm 6 mps 757 mmHg 68%
    09:00 +8°C° 0 mm 6 mps 757 mmHg 59%
    10:00 +10°C° 0 mm 7 mps 758 mmHg 49%
    11:00 +11°C° 0 mm 7 mps 758 mmHg 46%
    12:00 +11°C° 0 mm 7 mps 759 mmHg 44%
    13:00 +12°C° 0 mm 7 mps 759 mmHg 41%
    14:00 +11°C° 0 mm 6 mps 759 mmHg 43%
    15:00 +11°C° 0 mm 6 mps 759 mmHg 44%
    16:00 +12°C° 0 mm 5 mps 759 mmHg 46%
    17:00 +10°C° 0 mm 5 mps 760 mmHg 48%
    18:00 +10°C° 0 mm 4 mps 760 mmHg 50%
    19:00 +9°C° 0 mm 3 mps 761 mmHg 52%
    20:00 +8°C° 0 mm 3 mps 761 mmHg 56%
    21:00 +8°C° 0 mm 2 mps 762 mmHg 59%
    22:00 +7°C° 0 mm 2 mps 762 mmHg 62%
    23:00 +6°C° 0 mm 2 mps 762 mmHg 64%

    Tomorrow, 26 September, Wednesday

    Time Temperature Precipitation Wind Pressure Humidity
    00:00 +6°C° 0 mm 2 mps 762 mmHg 66%
    01:00 +7°C° 0 mm 1 mps 763 mmHg 68%
    02:00 +5°C° 0 mm 2 mps 762 mmHg 71%
    03:00 +5°C° 0 mm 2 mps 762 mmHg 74%
    04:00 +5°C° 0 mm 2 mps 762 mmHg 77%
    05:00 +4°C° 0 mm 3 mps 762 mmHg 77%
    06:00 +5°C° 0 mm 3 mps 763 mmHg 77%
    07:00 +5°C° 0 mm 3 mps 763 mmHg 77%
    08:00 +7°C° 0 mm 4 mps 762 mmHg 69%
    09:00 +10°C° 0 mm 4 mps 762 mmHg 61%
    10:00 +12°C° 0 mm 5 mps 762 mmHg 53%
    11:00 +12°C° 0 mm 5 mps 761 mmHg 51%
    12:00 +13°C° 0 mm 6 mps 761 mmHg 48%
    13:00 +14°C° 0 mm 6 mps 760 mmHg 46%
    14:00 +13°C° 0 mm 6 mps 759 mmHg 47%
    15:00 +13°C° 0 mm 5 mps 759 mmHg 48%
    16:00 +13°C° 0 mm 5 mps 758 mmHg 49%
    17:00 +12°C° 0 mm 4 mps 758 mmHg 50%
    18:00 +12°C° 0 mm 4 mps 758 mmHg 50%
    19:00 +12°C° 0 mm 4 mps 758 mmHg 51%
    20:00 +12°C° 0 mm 5 mps 757 mmHg 50%
    21:00 +11°C° 0 mm 6 mps 757 mmHg 48%
    22:00 +11°C° 0 mm 6 mps 757 mmHg 47%
    23:00 +11°C° 0 mm 6 mps 756 mmHg 47%

    Day after tomorrow, 27 September, Thursday

    Time Temperature Precipitation Wind Pressure Humidity
    00:00 +11°C° 0 mm 7 mps 756 mmHg 48%
    01:00 +11°C° 0 mm 7 mps 756 mmHg 48%
    02:00 +11°C° 0 mm 7 mps 756 mmHg 50%
    03:00 +11°C° 0 mm 7 mps 755 mmHg 52%
    04:00 +10°C° 0 mm 7 mps 755 mmHg 54%
    05:00 +10°C° 0 mm 7 mps 755 mmHg 56%
    06:00 +10°C° 0 mm 7 mps 755 mmHg 59%
    07:00 +10°C° 0 mm 7 mps 755 mmHg 62%
    08:00 +12°C° 0 mm 7 mps 755 mmHg 62%
    09:00 +14°C° 0 mm 6 mps 755 mmHg 62%
    10:00 +15°C° 0 mm 6 mps 756 mmHg 62%
    11:00 +16°C° 0 mm 6 mps 755 mmHg 61%
    12:00 +17°C° 0 mm 6 mps 755 mmHg 60%
    13:00 +19°C° 0 mm 6 mps 755 mmHg 60%
    14:00 +19°C° 0 mm 5 mps 755 mmHg 61%
    15:00 +19°C° 0 mm 5 mps 755 mmHg 63%
    16:00 +19°C° 0 mm 5 mps 754 mmHg 64%
    17:00 +18°C° 0 mm 4 mps 754 mmHg 70%
    18:00 +17°C° 0 mm 3 mps 754 mmHg 75%
    19:00 +14°C° 0 mm 3 mps 754 mmHg 81%
    20:00 +14°C° 0 mm 3 mps 754 mmHg 82%
    21:00 +14°C° 0 mm 3 mps 754 mmHg 84%
    22:00 +13°C° 0 mm 3 mps 753 mmHg 85%
    23:00 +13°C° 0 mm 3 mps 753 mmHg 85%

    28 September, Friday

    Time Temperature Precipitation Wind Pressure Humidity
    00:00 +13°C° 0 mm 3 mps 752 mmHg 85%
    01:00 +13°C° 0 mm 3 mps 752 mmHg 85%
    02:00 +13°C° 0 mm 4 mps 751 mmHg 82%
    03:00 +13°C° 0 mm 4 mps 751 mmHg 79%
    04:00 +12°C° 0 mm 4 mps 750 mmHg 77%
    05:00 +13°C° 0 mm 4 mps 750 mmHg 73%
    06:00 +13°C° 0 mm 4 mps 750 mmHg 68%
    07:00 +13°C° 0 mm 5 mps 749 mmHg 64%
    08:00 +14°C° 0 mm 5 mps 749 mmHg 59%
    09:00 +16°C° 0 mm 5 mps 749 mmHg 54%
    10:00 +17°C° 0 mm 5 mps 749 mmHg 49%
    11:00 +19°C° 0 mm 5 mps 749 mmHg 49%
    12:00 +19°C° 0 mm 6 mps 749 mmHg 49%
    13:00 +20°C° 0 mm 6 mps 749 mmHg 48%
    14:00 +19°C° 0 mm 5 mps 749 mmHg 52%
    15:00 +17°C° 0 mm 5 mps 749 mmHg 56%
    16:00 +16°C° 0 mm 5 mps 749 mmHg 61%
    17:00 +15°C° 0 mm 4 mps 750 mmHg 61%
    18:00 +14°C° 0 mm 4 mps 750 mmHg 62%
    19:00 +13°C° 0 mm 3 mps 751 mmHg 63%
    20:00 +12°C° 0 mm 3 mps 751 mmHg 63%
    21:00 +11°C° 0 mm 3 mps 751 mmHg 63%
    22:00 +10°C° 0 mm 2 mps 751 mmHg 63%
    23:00 +10°C° 0 mm 2 mps 752 mmHg 65%

    29 September, Saturday

    Time Temperature Precipitation Wind Pressure Humidity
    00:00 +9°C° 0 mm 2 mps 752 mmHg 66%
    01:00 +10°C° 0 mm 1 mps 752 mmHg 68%
    02:00 +9°C° 0 mm 2 mps 752 mmHg 69%
    03:00 +9°C° 0 mm 2 mps 752 mmHg 71%
    04:00 +8°C° 0 mm 2 mps 753 mmHg 72%
    05:00 +8°C° 0 mm 2 mps 753 mmHg 74%
    06:00 +8°C° 0 mm 2 mps 753 mmHg 75%
    07:00 +8°C° 0 mm 2 mps 754 mmHg 77%
    08:00 +10°C° 0 mm 3 mps 754 mmHg 70%
    09:00 +11°C° 0 mm 3 mps 755 mmHg 62%
    10:00 +12°C° 0 mm 4 mps 755 mmHg 55%
    11:00 +13°C° 0 mm 4 mps 755 mmHg 51%
    12:00 +13°C° 0 mm 4 mps 755 mmHg 47%
    13:00 +14°C° 0 mm 4 mps 755 mmHg 42%
    14:00 +13°C° 0 mm 3 mps 755 mmHg 43%
    15:00 +13°C° 0 mm 3 mps 755 mmHg 43%
    16:00 +13°C° 0 mm 3 mps 755 mmHg 43%
    17:00 +12°C° 0 mm 3 mps 756 mmHg 45%
    18:00 +10°C° 0 mm 2 mps 756 mmHg 48%
    19:00 +9°C° 0 mm 2 mps 756 mmHg 51%
    20:00 +8°C° 0 mm 2 mps 756 mmHg 52%
    21:00 +8°C° 0 mm 2 mps 757 mmHg 52%
    22:00 +7°C° 0 mm 2 mps 757 mmHg 53%
    23:00 +7°C° 0 mm 2 mps 757 mmHg 54%

    30 September, Sunday

    Time Temperature Precipitation Wind Pressure Humidity
    00:00 +6°C° 0 mm 2 mps 757 mmHg 55%
    01:00 +6°C° 0 mm 2 mps 757 mmHg 57%
    02:00 +6°C° 0 mm 2 mps 756 mmHg 59%
    03:00 +5°C° 0 mm 2 mps 756 mmHg 61%
    04:00 +5°C° 0 mm 2 mps 756 mmHg 63%
    05:00 +5°C° 0 mm 2 mps 756 mmHg 64%
    06:00 +6°C° 0 mm 2 mps 756 mmHg 65%
    07:00 +6°C° 0 mm 2 mps 756 mmHg 66%
    08:00 +8°C° 0 mm 2 mps 756 mmHg 61%
    09:00 +9°C° 0 mm 2 mps 755 mmHg 55%
    10:00 +12°C° 0 mm 2 mps 755 mmHg 49%
    11:00 +13°C° 0 mm 2 mps 755 mmHg 45%
    12:00 +14°C° 0 mm 2 mps 754 mmHg 41%
    13:00 +14°C° 0 mm 2 mps 753 mmHg 37%
    14:00 +14°C° 0 mm 2 mps 753 mmHg 38%
    15:00 +14°C° 0 mm 2 mps 752 mmHg 39%
    16:00 +14°C° 0 mm 2 mps 752 mmHg 40%
    17:00 +13°C° 0 mm 1 mps 752 mmHg 44%
    18:00 +12°C° 0 mm 1 mps 752 mmHg 47%
    19:00 +10°C° 0 mm 1 mps 752 mmHg 50%
    20:00 +10°C° 0 mm 1 mps 752 mmHg 51%
    21:00 +9°C° 0 mm 1 mps 752 mmHg 53%
    22:00 +9°C° 0 mm 1 mps 751 mmHg 54%
    23:00 +9°C° 0 mm 1 mps 751 mmHg 56%
    Show more